Weather History for Hanford, CA

Change the Weather History Date:

Wednesday, September 5, 2012

  Actual Average Record
Temperature  
Mean Temperature 80 °F 76 °F  
Max Temperature 96 °F 93 °F 101 °F (2008)
Min Temperature 63 °F 59 °F 52 °F (2004)
Degree Days  
Heating Degree Days 0    
Month to date heating degree days 0  
Since 1 July heating degree days 0  
Cooling Degree Days 15    
Month to date cooling degree days 51  
Year to date cooling degree days 1608  
Growing Degree Days 30 (Base 50)    
Moisture  
Dew Point 52 °F    
Average Humidity 46    
Maximum Humidity 73    
Minimum Humidity 18    
Precipitation  
Precipitation 0.00 in 0.01 in 0.83 in (1978)
Month to date precipitation 0.00 0.01  
Year to date precipitation 4.58 6.81  
Since 1 July precipitation T 0.05  
Snow  
Snow 0.00 in - - ()
Month to date snowfall 0.0  
Since 1 July snowfall 0.0  
Since 1 September snowfall 0.0  
Snow Depth 0.00 in    
Sea Level Pressure  
Sea Level Pressure 29.91 in    
Wind  
Wind Speed 4 mph (West)    
Max Wind Speed 13 mph    
Max Gust Speed 15 mph    
Visibility 10 miles    
Events      
T = Trace of Precipitation, MM = Missing Value Source: NWS Daily Summary

Daily Weather History Graph

Daily Weather History Graph

Search for Another Location

Airport:

Trip Planner

Search our weather history database for the weather conditions in past years. The results will help you decide how hot, cold, wet, or windy it might be!

Date:

Astronomy

Sep. 05, 2012 Rise Set
Actual Time 6:33 AM PDT 7:19 PM PDT
Civil Twilight 6:07 AM PDT 7:45 PM PDT
Nautical Twilight 5:36 AM PDT 8:16 PM PDT
Astronomical Twilight 5:04 AM PDT 8:48 PM PDT
Moon 10:04 PM PDT (9/5) 11:31 AM PDT (9/5)
Length of Visible Light 13h 38m
Length of Day
12h 46m
Waning Gibbous, 75% of the Moon is Illuminated
Sep 5
Waning Gibbous
Sep 8
Last Quarter
Sep 15
New
Sep 22
First Quarter
Sep 29
Full

Hourly Weather History & Observations

Time (PDT) Temp. Heat Index Dew Point Humidity Pressure Visibility Wind Dir Wind Speed Gust Speed Precip Events Conditions
12:53 AM 78.1 °F - 54.0 °F 43% 29.91 in 10.0 mi NW 9.2 mph - N/A   Clear
1:53 AM 75.9 °F - 52.0 °F 43% 29.91 in 10.0 mi NNW 8.1 mph - N/A   Clear
2:53 AM 72.0 °F - 53.1 °F 51% 29.91 in 10.0 mi North 3.5 mph - N/A   Clear
3:53 AM 66.9 °F - 54.0 °F 63% 29.91 in 10.0 mi Calm Calm - N/A   Clear
4:53 AM 66.9 °F - 53.1 °F 61% 29.91 in 10.0 mi NW 3.5 mph - N/A   Clear
5:53 AM 64.0 °F - 54.0 °F 70% 29.92 in 10.0 mi Calm Calm - N/A   Clear
6:53 AM 66.0 °F - 57.0 °F 73% 29.93 in 9.0 mi Calm Calm - N/A   Clear
7:53 AM 71.1 °F - 51.1 °F 49% 29.94 in 7.0 mi WNW 5.8 mph - N/A   Clear
8:53 AM 75.9 °F - 50.0 °F 40% 29.94 in 9.0 mi NW 4.6 mph - N/A   Clear
9:53 AM 80.1 °F - 51.1 °F 36% 29.95 in 9.0 mi Calm Calm - N/A   Clear
10:53 AM 84.9 °F - 48.9 °F 29% 29.94 in 10.0 mi Calm Calm - N/A   Clear
11:53 AM 88.0 °F - 46.9 °F 24% 29.94 in 10.0 mi NNW 5.8 mph - N/A   Clear
12:53 PM 91.9 °F - 48.0 °F 22% 29.92 in 10.0 mi Calm Calm - N/A   Clear
1:53 PM 95.0 °F - 46.9 °F 19% 29.91 in 10.0 mi South 5.8 mph - N/A   Clear
2:53 PM 96.1 °F - 46.9 °F 19% 29.89 in 10.0 mi Variable 5.8 mph - N/A   Clear
3:53 PM 93.0 °F 90.8 °F 54.0 °F 27% 29.88 in 10.0 mi SSE 4.6 mph - N/A   Scattered Clouds
4:53 PM 93.9 °F 92.0 °F 55.0 °F 27% 29.87 in 9.0 mi Calm Calm - N/A   Clear
5:53 PM 91.9 °F 90.8 °F 57.9 °F 32% 29.86 in 10.0 mi ESE 3.5 mph - N/A   Clear
6:53 PM 87.1 °F 86.7 °F 60.1 °F 40% 29.86 in 8.0 mi SSE 4.6 mph - N/A   Clear
7:53 PM 82.0 °F 82.1 °F 59.0 °F 45% 29.88 in 7.0 mi SSE 5.8 mph - N/A   Clear
8:53 PM 82.0 °F - 41.0 °F 23% 29.89 in 10.0 mi SW 6.9 mph - N/A   Clear
9:53 PM 75.9 °F - 42.1 °F 30% 29.89 in 10.0 mi South 5.8 mph - N/A   Clear
10:53 PM 77.0 °F - 52.0 °F 42% 29.90 in 10.0 mi WNW 8.1 mph - N/A   Clear
11:53 PM 75.0 °F - 53.1 °F 46% 29.91 in 10.0 mi West 5.8 mph - N/A   Mostly Cloudy